World > North America > United States > Texas > Guadalupe

Hourly Guadalupe, TX Regional Weather

Feedback E-mail the Weather

Quick WX

Guadalupe, TX Weather Maps

°F °C°F °C
Guadalupe Weather Map
UTC Time: 8/13/2022, 03:42
Your Time:

Guadalupe, TX Regional Weather

Expires:202208130400;;003541
ASUS44 KSJT 130315
RWRSJT
WEST CENTRAL TEXAS REGIONAL WEATHER ROUNDUP
NATIONAL WEATHER SERVICE SAN ANGELO TX
1000 PM CDT FRI AUG 12 2022

NOTE: "FAIR" INDICATES FEW OR NO CLOUDS BELOW 12,000 FEET WITH NO
SIGNIFICANT WEATHER AND/OR OBSTRUCTIONS TO VISIBILITY.


TXZ229-232-234-239-242-243-245-247-249-250-
253-255-257-343-347-443-130400-
TEXAS COASTAL BEND, RIO GRANDE PLAINS DEEP SOUTH TEXAS
  
CITY           SKY/WX    TMP DP  RH WIND       PRES   REMARKS
VICTORIA       MOCLDY    79  77  94 E3        29.95R                  
BEEVILLE       FAIR      80  74  81 E5        29.96R                  
ROCKPORT       PTCLDY    84  76  76 SE8       29.94R                  
PORT ARANSAS   PTCLDY    83  76  77 SE6       29.96R                  
PORT LAVACA    NOT AVBL                                               
CORPUS CHRISTI CLOUDY    83  74  74 SE6       29.94R                  
KINGSVILLE NAS PTCLDY    82  75  79 SE6       29.94                   
COTULLA        CLOUDY    92  71  50 SE15      29.95R                  
LAREDO         PTCLDY    84  73  69 SE12      29.96R                  
BROWNSVILLE    MOCLDY    81  77  88 CALM      29.93R                  
PORT ISABEL    MOCLDY    82  75  79 SE3       29.93R                  
HEBBRONVILLE   MOCLDY    82  71  69 S5        29.98S                  
MCALLEN        MOCLDY    84  74  71 E7        29.94R                  
WESLACO        NOT AVBL                                         

SKY/WX - Weather  TMP - Temperature  DP - Dew Point  RH - Humidity
WIND - Wind Direction/Speed PRES - Barometric Pressure VSB - Visibility
WCI - Wind Chill Index E13G22 Wind - East Wind 13 mph/Gusts of 22 mph

Trending Headlines

Guadalupe Radar Loop



Guadalupe Quick Facts


National Two Day Weather Forecast


E-mail the Guadalupe Weather Forecast

Voice your opinion or tell us about page issues...